[[{"header":{"parameterUnit":"m.s-1","parameterCategory":1,"la1":30.2991,"la2":30.254,"lo1":-89.0895,"lo2":-89.0444,"dy":0.0017,"dx":0.0017,"nx":28,"ny":28,"refTime":"2024-05-29T09:00:00:Z","depth":0,"parameterNumber":2,"parameterNumberName":"U-component_of_WINDS"},"data":[0,0,0,0,0,0,0,0,0,0,0,0,0,0,0,0,0,0,0,0,0,0,0,0,0,0,0,0,0,0,0,0,0,0,0,0,0,0,0,0,0,0,0,0,0,0,0,0,0,0,0,0,0,0,0,0,0,0,-4.1714,-4.1714,0,-4.1684,-4.1684,-4.1683,-4.1579,-4.1577,-4.1575,-4.1573,-4.1542,-4.1543,-4.1545,0,0,0,0,0,0,0,0,0,0,0,0,0,-4.1686,-4.1687,-4.1714,-4.1714,-4.1714,-4.1684,-4.1684,-4.1683,-4.158,-4.1577,-4.1574,-4.1572,-4.1542,-4.1543,-4.1545,0,0,0,0,0,0,0,0,0,0,0,0,0,-4.1681,-4.1687,-4.1714,-4.1658,-4.1653,-4.1684,-4.1684,-4.1683,-4.158,-4.1577,-4.1573,-4.157,-4.1541,-4.1543,-4.1545,-4.1628,0,0,-4.1551,-4.1552,0,0,0,0,0,0,0,0,-4.1682,-4.1682,-4.1667,-4.1662,-4.1656,-4.1632,-4.1662,-4.1665,-4.1581,-4.1608,-4.1573,-4.1568,-4.1575,-4.1574,-4.1576,-4.1626,-4.1625,-4.1552,-4.1553,-4.1554,-4.1554,0,0,0,0,0,0,0,-4.1682,-4.1683,-4.1702,-4.1667,-4.1661,-4.1636,-4.1631,-4.1662,-4.1612,-4.1605,-4.1598,-4.1596,-4.1571,-4.1574,-4.1574,-4.1625,-4.1551,-4.1553,-4.1555,-4.1555,-4.1744,-4.1748,0,0,0,0,0,0,-4.169,-4.1684,-4.1703,-4.1701,-4.1661,-4.1639,-4.1634,-4.1643,-4.1611,-4.1603,-4.1599,-4.1591,-4.1572,-4.1572,-4.1573,-4.1668,-4.1554,-4.1556,-4.1557,-4.1741,-4.1745,-4.1749,0,0,0,0,0,0,-4.169,-4.1693,-4.1704,-4.1691,-4.169,-4.1644,-4.1655,-4.1645,-4.1647,-4.1606,-4.1596,-4.1611,-4.157,-4.157,-4.1616,-4.1666,-4.1556,-4.1558,-4.1736,-4.1742,-4.1747,-4.186,0,0,0,0,0,0,-4.169,-4.1693,-4.1723,-4.1692,-4.1692,-4.1747,-4.1658,-4.1647,-4.1651,-4.1641,-4.1615,-4.1607,-4.1567,-4.1613,-4.1618,-4.1667,-4.156,-4.1731,-4.1739,-4.1746,-4.1851,-4.1869,-4.1884,0,0,0,0,0,-4.1689,-4.1756,-4.1725,-4.1728,-4.1728,-4.175,-4.1749,-4.1702,-4.1655,-4.1686,-4.166,-4.1608,-4.1661,-4.1619,-4.1623,-4.1673,-4.1728,-4.1737,-4.1745,-4.1844,-4.1865,-4.1883,0,0,0,0,0,0,-4.1793,-4.175,-4.1716,-4.1775,-4.1767,-4.1732,-4.1768,-4.1726,-4.173,-4.172,-4.1662,-4.1657,-4.1711,-4.1697,-4.1651,-4.1753,-4.1686,-4.1696,-4.176,-4.178,-4.1795,-4.1797,-4.1562,0,0,0,0,0,-4.1823,-4.1844,-4.1806,-4.1861,-4.1859,-4.1816,-4.1823,-4.1788,-4.1777,-4.1773,-4.175,-4.1742,-4.1757,-4.1768,-4.1779,-4.185,-4.1844,-4.1888,-4.1904,-4.1917,-4.1925,-4.1964,-4.1983,-4.1777,-4.1777,-4.1777,0,0,-4.1884,-4.1864,-4.188,-4.1882,-4.1871,-4.1895,-4.1813,-4.1841,-4.1858,-4.1777,-4.1818,-4.1803,-4.179,-4.1849,-4.1874,-4.1839,-4.1982,-4.1928,-4.1939,-4.194,-4.1974,-4.1994,-4.2011,-4.1783,-4.1782,-4.1781,0,0,-4.2008,-4.1995,-4.204,-4.2032,-4.2018,-4.1989,-4.2001,-4.1974,-4.196,-4.2001,-4.1941,-4.1962,-4.1989,-4.1983,-4.1983,-4.2111,-4.2064,-4.2117,-4.2199,-4.2237,-4.2254,-4.2268,-4.2313,-4.233,-4.2126,-4.2126,-4.2126,0,-4.2086,-4.2119,-4.2069,-4.2102,-4.2105,-4.2035,-4.2081,-4.2076,-4.2067,-4.2071,-4.2033,-4.2066,-4.2053,-4.211,-4.2142,-4.2145,-4.2157,-4.2118,-4.2255,-4.2269,-4.2281,-4.2324,-4.2341,-4.2132,-4.2132,-4.2131,-4.213,0,-4.2216,-4.224,-4.2279,-4.2272,-4.228,-4.232,-4.2277,-4.2292,-4.2258,-4.2233,-4.2278,-4.226,-4.2267,-4.2279,-4.2245,-4.2333,-4.2312,-4.2266,-4.2196,-4.2308,-4.2347,-4.2363,-4.2142,-4.2139,-4.2137,-4.2136,0,0,-4.24,-4.2369,-4.2383,-4.2381,-4.2362,-4.238,-4.2419,-4.2427,-4.244,-4.2438,-4.2469,-4.2495,-4.2453,-4.2454,-4.242,-4.2454,-4.2557,-4.2403,-4.2402,-4.2432,-4.2653,-4.2687,-4.2707,-4.2527,-4.253,-4.2532,-4.2654,0,-4.2517,-4.2578,-4.2537,-4.2606,-4.2629,-4.2565,-4.2598,-4.2592,-4.2571,-4.2589,-4.2567,-4.2586,-4.2529,-4.253,-4.256,-4.2538,-4.26,-4.2528,-4.2555,-4.2556,-4.2558,-4.2727,-4.2762,-4.2878,-4.2669,-4.2672,-4.2674,0,-4.266,-4.2665,-4.2737,-4.2717,-4.2725,-4.2755,-4.2761,-4.2778,-4.2771,-4.2754,-4.2758,-4.2716,-4.2753,-4.2688,-4.2739,-4.2691,-4.27,-4.2692,-4.2695,-4.2694,-4.262,-4.273,-4.2914,-4.2931,-4.2697,-4.2696,-4.2694,0,-4.2787,-4.2812,-4.2858,-4.2858,-4.2836,-4.2859,-4.2851,-4.284,-4.2849,-4.2855,-4.286,-4.287,-4.2876,-4.2885,-4.2848,-4.2803,-4.2905,-4.2835,-4.2892,-4.2893,-4.2914,-4.2913,-4.3101,-4.2923,-4.2923,-4.2922,-4.2922,0,-4.2921,-4.2967,-4.2915,-4.2944,-4.2995,-4.2948,-4.3,-4.2986,-4.2978,-4.3003,-4.2949,-4.2975,-4.2925,-4.2946,-4.2917,-4.2965,-4.2968,-4.2956,-4.2947,-4.2959,-4.2961,-4.2963,-4.2953,-4.2927,-4.2926,-4.2925,-4.2924,0,-4.3069,-4.3036,-4.3083,-4.3059,-4.3055,-4.3094,-4.3074,-4.31,-4.3078,-4.3111,-4.3117,-4.3082,-4.3104,-4.3069,-4.3087,-4.3068,-4.3134,-4.3114,-4.3136,-4.313,-4.3188,-4.3183,-4.3383,-4.3407,-4.3215,-4.3217,-4.3219,0,-4.3155,-4.319,-4.3171,-4.3185,-4.318,-4.3202,-4.3211,-4.3169,-4.3181,-4.3177,-4.3205,-4.3223,-4.3234,-4.3273,-4.325,-4.3264,-4.3243,-4.3313,-4.3245,-4.3257,-4.3244,-4.3241,-4.3245,-4.3326,-4.3328,-4.333,-4.3332,0,-4.3313,-4.3296,-4.331,-4.3322,-4.3334,-4.3341,-4.3343,-4.3357,-4.3313,-4.333,-4.3352,-4.3361,-4.3381,-4.34,-4.3409,-4.3402,-4.336,-4.3354,-4.3368,-4.3379,-4.3391,-4.3385,-4.3173,-4.3349,-4.3347,-4.3346,-4.3345,-4.3344,-4.3432,-4.346,-4.3452,-4.3472,-4.347,-4.3474,-4.3498,-4.3481,-4.3499,-4.3511,-4.3486,-4.3515,-4.351,-4.3519,-4.3517,-4.354,-4.3509,-4.3529,-4.3534,-4.3539,-4.3548,-4.3389,-4.3542,-4.3541,-4.3541,-4.354,-4.354,0,-4.3585,-4.3578,-4.3597,-4.3603,-4.3619,-4.358,-4.3582,-4.3598,-4.3625,-4.3624,-4.3638,-4.3665,-4.3684,-4.3665,-4.3681,-4.3703,-4.3685,-4.3709,-4.3706,-4.3705,-4.3575,-4.3561,-4.3724,-4.3724,-4.3724,-4.3724,-4.3724,-4.3724,-4.3667,-4.3713,-4.3697,-4.3743,-4.3735,-4.3764,-4.3768,-4.3773,-4.3772,-4.3806,-4.3822,-4.3809,-4.3802,-4.3817,-4.3834,-4.3828,-4.3836,-4.3867,-4.3854,-4.3732,-4.3714,-4.3697,-4.3683,-4.3869,-4.3869,-4.3982,-4.3983,-4.3984]},{"header":{"parameterUnit":"m.s-1","parameterCategory":1,"la1":30.2991,"la2":30.254,"lo1":-89.0895,"lo2":-89.0444,"dy":0.0017,"dx":0.0017,"nx":28,"ny":28,"refTime":"2024-05-29T09:00:00:Z","depth":0,"parameterNumber":3,"parameterNumberName":"V-component_of_WINDS"},"data":[0,0,0,0,0,0,0,0,0,0,0,0,0,0,0,0,0,0,0,0,0,0,0,0,0,0,0,0,0,0,0,0,0,0,0,0,0,0,0,0,0,0,0,0,0,0,0,0,0,0,0,0,0,0,0,0,0,0,3.2702,3.2702,0,3.266,3.266,3.2659,3.2674,3.2675,3.2676,3.2677,3.2625,3.2622,3.262,0,0,0,0,0,0,0,0,0,0,0,0,0,3.2789,3.2787,3.2702,3.2702,3.2701,3.266,3.266,3.2659,3.2674,3.2675,3.2677,3.2678,3.2625,3.2623,3.262,0,0,0,0,0,0,0,0,0,0,0,0,0,3.2749,3.2786,3.2702,3.2704,3.2704,3.266,3.266,3.2659,3.2674,3.2675,3.2677,3.2678,3.2626,3.2623,3.2619,3.2569,0,0,3.2609,3.2607,0,0,0,0,0,0,0,0,3.2751,3.2746,3.2704,3.2704,3.2704,3.2674,3.2671,3.2628,3.2674,3.2685,3.2677,3.2679,3.2639,3.2635,3.2623,3.2566,3.2564,3.2608,3.2606,3.2605,3.2604,0,0,0,0,0,0,0,3.2754,3.2748,3.2685,3.2704,3.2703,3.2705,3.2701,3.2663,3.2654,3.2684,3.2685,3.268,3.2639,3.2627,3.2622,3.2563,3.2609,3.2605,3.2603,3.2602,3.2463,3.2461,0,0,0,0,0,0,3.2758,3.275,3.2687,3.2684,3.2732,3.2702,3.2697,3.2682,3.2655,3.2652,3.2679,3.2681,3.2632,3.2626,3.262,3.2559,3.2605,3.2602,3.26,3.2464,3.2463,3.2461,0,0,0,0,0,0,3.276,3.2752,3.2688,3.2717,3.2709,3.2699,3.2681,3.268,3.2668,3.2651,3.2649,3.2669,3.2633,3.2625,3.2582,3.2558,3.26,3.2597,3.2466,3.2464,3.2462,3.2437,0,0,0,0,0,0,3.2762,3.2753,3.2735,3.2717,3.2708,3.2653,3.268,3.2678,3.2663,3.2665,3.264,3.2637,3.2633,3.2587,3.2579,3.2554,3.2594,3.2468,3.2465,3.2462,3.244,3.2434,3.2429,0,0,0,0,0,3.2765,3.2727,3.2734,3.2726,3.2686,3.2652,3.2646,3.2645,3.2661,3.2642,3.2631,3.2638,3.2563,3.2583,3.2573,3.2547,3.247,3.2466,3.2463,3.2442,3.2435,3.2429,0,0,0,0,0,0,3.2739,3.2725,3.2732,3.2688,3.2671,3.2654,3.263,3.2637,3.2613,3.2616,3.2612,3.2607,3.2562,3.255,3.2573,3.2497,3.2518,3.2513,3.2506,3.2499,3.2494,3.2497,3.2591,0,0,0,0,0,3.2729,3.2705,3.2693,3.2655,3.2646,3.264,3.2625,3.2626,3.2607,3.2599,3.2585,3.2565,3.2536,3.2517,3.249,3.2439,3.2433,3.2416,3.2411,3.2407,3.2401,3.2373,3.2365,3.2449,3.2449,3.2449,0,0,3.2705,3.2695,3.2679,3.2649,3.2636,3.261,3.2633,3.2604,3.2583,3.2593,3.2553,3.2542,3.2519,3.2472,3.2451,3.2461,3.2377,3.2402,3.2399,3.2395,3.2369,3.2361,3.2354,3.2446,3.2447,3.2447,0,0,3.265,3.264,3.2608,3.2596,3.2578,3.2574,3.2567,3.2549,3.2544,3.2504,3.2512,3.2486,3.2437,3.2421,3.2406,3.2347,3.2352,3.2338,3.2309,3.2282,3.2275,3.2269,3.2248,3.224,3.2333,3.2333,3.2333,0,3.2622,3.2585,3.2589,3.256,3.2546,3.2559,3.2525,3.2512,3.2484,3.2474,3.2487,3.2427,3.2412,3.2362,3.2348,3.2336,3.2325,3.234,3.2277,3.2271,3.2265,3.2244,3.2236,3.2331,3.2332,3.2332,3.2332,0,3.2552,3.2526,3.2502,3.2479,3.2463,3.2431,3.2429,3.2411,3.2414,3.2409,3.2368,3.2351,3.2321,3.231,3.2311,3.226,3.2267,3.2278,3.2299,3.2255,3.2236,3.2228,3.2329,3.233,3.233,3.2331,0,0,3.2475,3.2459,3.245,3.244,3.2423,3.2401,3.237,3.2345,3.2329,3.2311,3.2283,3.2243,3.2255,3.2238,3.2237,3.2214,3.2168,3.2228,3.2228,3.2217,3.211,3.2101,3.2092,3.2173,3.2172,3.217,3.2112,0,3.2418,3.2367,3.2371,3.2321,3.2297,3.231,3.2283,3.2268,3.2262,3.2239,3.2232,3.2204,3.2221,3.2211,3.2189,3.2179,3.2147,3.2183,3.2145,3.2143,3.2149,3.2082,3.2071,3.2017,3.2104,3.2103,3.2102,0,3.2343,3.2326,3.2275,3.2263,3.2253,3.2229,3.2207,3.2185,3.2168,3.2166,3.2149,3.2153,3.212,3.2144,3.2097,3.2122,3.2107,3.21,3.2097,3.2092,3.2119,3.2073,3.1999,3.1991,3.209,3.2091,3.2092,0,3.2292,3.2256,3.2221,3.2213,3.2198,3.2181,3.2173,3.2158,3.2143,3.2123,3.2113,3.2088,3.2073,3.2053,3.2049,3.2068,3.2002,3.2026,3.1997,3.1997,3.1981,3.1981,3.1902,3.1974,3.1974,3.1974,3.1974,0,3.2226,3.2194,3.2198,3.2176,3.2141,3.2146,3.2109,3.2103,3.209,3.2066,3.2075,3.2052,3.205,3.2025,3.2022,3.1983,3.1977,3.1972,3.1971,3.1971,3.1971,3.1959,3.1962,3.1972,3.1972,3.1973,3.1973,0,3.2162,3.2164,3.2126,3.2117,3.2114,3.2088,3.2079,3.2057,3.2054,3.2023,3.2016,3.201,3.1982,3.1977,3.1943,3.1941,3.1894,3.1898,3.1901,3.1901,3.1872,3.1874,3.1781,3.1768,3.1849,3.1848,3.1848,0,3.2119,3.2096,3.2085,3.2071,3.2064,3.2041,3.2027,3.2031,3.2015,3.1996,3.1976,3.195,3.1929,3.1882,3.1873,3.1847,3.1849,3.1818,3.1845,3.1845,3.1847,3.1848,3.1846,3.1812,3.1811,3.1811,3.181,0,3.2043,3.2046,3.2027,3.2009,3.1993,3.1977,3.1963,3.1951,3.1952,3.1934,3.1908,3.1891,3.1859,3.1831,3.1806,3.1796,3.1802,3.1803,3.1794,3.1792,3.1795,3.1792,3.1885,3.1804,3.1804,3.1805,3.1805,3.1805,3.1988,3.1968,3.1958,3.1937,3.1927,3.1914,3.1894,3.1891,3.1869,3.1845,3.1848,3.1818,3.1802,3.177,3.1758,3.1733,3.1743,3.1731,3.1728,3.1724,3.1721,3.1801,3.1728,3.1729,3.1729,3.1729,3.1729,0,3.1911,3.1907,3.1888,3.1869,3.1852,3.1865,3.185,3.1834,3.1809,3.1796,3.1776,3.1745,3.172,3.171,3.1684,3.1666,3.1668,3.1659,3.1659,3.1657,3.1714,3.1724,3.1658,3.1658,3.1658,3.1658,3.1658,3.1658,3.187,3.1837,3.1839,3.1801,3.1796,3.177,3.176,3.1748,3.1737,3.1704,3.1684,3.1679,3.1667,3.1641,3.1617,3.1615,3.1604,3.1593,3.1592,3.1645,3.1653,3.1659,3.1668,3.1591,3.1591,3.1536,3.1536,3.1535]}]]